Погода в Серёгове

Россия / Республика Коми     62°19′44″N   50°41′47″E
темп.,
°C
ветер,
м/с
пор.,
м/с
влажн.,
%
обл.,
%
осадки,
мм/ч
давл.,
гПа
погр.,
м
14 июня, пн
пн1400:00+15ю26895 0.0 1010126
03:00+14ю289620 0.0 1011197
06:00+19ююз367221 0.0 1010457
09:00+24ююз475317 0.1 10091620
12:00+25юз474398 0.5 10082184
15:00+26зюз4742100 0.5 10072430
18:00+17ююз258857 0.9 1008133
21:00+16з228825 1.5 100822
15 июня, вт
вт1500:00+14сз399798 0.9 1010313
03:00+12сз269776 0.9 1012291
06:00+14ссз35780 0.0 1014433
09:00+20ссз233978 0.0 10131342
12:00+24зсз122840 0.0 10131982
15:00+24ююз2226100 0.0 10112142
18:00+24ю253112 0.0 10101988
21:00+17юв22486 0.0 100941
16 июня, ср
ср1600:00+15ю25685 0.0 100987
03:00+15ю399499 0.8 1008247
06:00+18ююз3886100 0.3 1007385
09:00+17ю3794100 2.0 1006314
12:00+17ююз2892100 1.4 1006388
15:00+18юз3887100 2.3 1005378
18:00+15сз51189100 0.6 1004718
21:00+12сз3897100 5.4 1006520
17 июня, чт
чт1700:00+11с61292100 5.3 10071083
03:00+9ссз4109320 5.6 1010818
06:00+9ссз48730 0.0 1013807
09:00+14ссз46415 0.0 10141387
12:00+17сз46303 0.0 10152020
15:00+19ссз472866 0.0 10152615
18:00+18сз463960 0.0 10161961
21:00+12зсз226548 0.0 101836
18 июня, пт
пт1800:00+9сз28762 0.0 1018151
03:00+8зсз26785 0.0 1019126
06:00+13сз365828 0.0 1020584
09:00+17зсз463999 0.0 10191563
12:00+13з3665100 0.1 1019612
15:00+12ю1277100 0.6 1018261
18:00+15ююз226480 0.1 1017354
21:00+13ююз017599 0.1 101710